Location: Balmoral
(33.0667°S, 151.5833°E)
Time: 03:25:36
(UTC+00:00)

Meteor 1-11 Rocket - Pass Details

Date: 18 September 2020
Orbit: 830 x 916 km, 81.2° (Epoch: 23 October)

Event Time Altitude Azimuth Distance (km) Brightness Sun altitude
Rises 19:15:30 0° 354° (N) 3,379 6.7 -7.5°
Reaches altitude 10° 19:17:53 10° 354° (N) 2,445 6.0 -7.0°
Maximum altitude 19:23:26 89° 77° (ENE) 844 3.8 -5.8°
Drops below altitude 10° 19:29:01 10° 172° (S) 2,466 6.3 -4.7°
Sets 19:31:27 0° 171° (S) 3,410 7.0 -4.2°
